Fremont, NE

2:51 AM CDT on August 31, 2016 (GMT -0500)
Fremont Municipal

Weather History for KFET - April, 2013

Change the Weather History Date:

Monday, April 15, 2013

  Actual Average Record
Temperature  
Mean Temperature 40 °F -  
Max Temperature 48 °F 65 °F 93 °F (2002)
Min Temperature 33 °F 38 °F 20 °F (2014)
Degree Days  
Heating Degree Days 24    
Moisture  
Dew Point 30 °F    
Average Humidity 70    
Maximum Humidity 91    
Minimum Humidity 53    
Precipitation  
Precipitation 0.00 in - - ()
Sea Level Pressure  
Sea Level Pressure 29.89 in    
Wind  
Wind Speed 10 mph (WNW)    
Max Wind Speed 18 mph    
Max Gust Speed 20 mph    
Visibility 10 miles    
Events      
Averages and records for this station are not official NWS values.
T = Trace of Precipitation, MM = Missing Value Source: NWS Daily Summary

Daily Weather History Graph

Daily Weather History Graph

Search for Another Location

Airport or City:

Trip Planner

Search our weather history database for the weather conditions in past years. The results will help you decide how hot, cold, wet, or windy it might be!

Date:

Astronomy

Apr. 15, 2013 Rise Set
Actual Time 6:45 AM CDT 8:06 PM CDT
Civil Twilight 6:17 AM CDT 8:35 PM CDT
Nautical Twilight 5:42 AM CDT 9:10 PM CDT
Astronomical Twilight 5:06 AM CDT 9:46 PM CDT
Moon 10:10 AM CDT (4/15) 12:21 AM CDT (4/15)
Length of Visible Light 14h 18m
Length of Day
13h 20m
Waxing Crescent, 25% of the Moon is Illuminated
Apr 15
Waxing Crescent
Apr 18
First Quarter
Apr 25
Full
May 2
Last Quarter
May 9
New

Hourly Weather History & Observations

Time (CDT) Temp. Windchill Dew Point Humidity Pressure Visibility Wind Dir Wind Speed Gust Speed Precip Events Conditions
12:15 AM 41.5 °F 37.1 °F 35.8 °F 80% 29.67 in 10.0 mi SSW 6.9 mph - N/A   Clear
12:35 AM 41.5 °F 36.4 °F 33.1 °F 72% 29.68 in 10.0 mi SW 8.1 mph - N/A   Clear
12:55 AM 42.4 °F 37.5 °F 32.0 °F 67% 29.68 in 10.0 mi SW 8.1 mph - N/A   Clear
1:15 AM 42.6 °F 37.8 °F 32.0 °F 66% 29.69 in 10.0 mi SW 8.1 mph - N/A   Clear
1:35 AM 41.5 °F 35.9 °F 32.0 °F 69% 29.70 in 10.0 mi SW 9.2 mph - N/A   Clear
1:55 AM 40.3 °F 33.9 °F 32.0 °F 72% 29.71 in 10.0 mi West 10.4 mph - N/A   Clear
2:15 AM 36.7 °F 29.9 °F 32.0 °F 83% 29.70 in 10.0 mi West 9.2 mph - N/A   Clear
2:35 AM 38.3 °F 31.9 °F 32.2 °F 79% 29.70 in 10.0 mi West 9.2 mph - N/A   Clear
2:55 AM 35.4 °F 29.7 °F 32.0 °F 87% 29.69 in 10.0 mi WNW 6.9 mph - N/A   Clear
3:15 AM 35.8 °F 28.8 °F 32.0 °F 86% 29.71 in 10.0 mi West 9.2 mph - N/A   Clear
3:35 AM 36.7 °F 28.9 °F 32.0 °F 83% 29.74 in 10.0 mi West 11.5 mph - N/A   Clear
3:55 AM 36.5 °F 29.7 °F 31.6 °F 83% 29.74 in 10.0 mi West 9.2 mph - N/A   Clear
4:15 AM 36.0 °F 28.0 °F 31.1 °F 82% 29.75 in 10.0 mi West 11.5 mph - N/A   Clear
4:35 AM 35.6 °F 27.1 °F 31.1 °F 84% 29.75 in 10.0 mi West 12.7 mph - N/A   Clear
4:55 AM 34.7 °F 26.9 °F 30.9 °F 86% 29.74 in 10.0 mi West 10.4 mph - N/A   Clear
5:15 AM 33.1 °F 26.1 °F 30.7 °F 91% 29.74 in 10.0 mi WNW 8.1 mph - N/A   Clear
5:35 AM 34.0 °F 25.5 °F 30.6 °F 87% 29.74 in 10.0 mi WNW 11.5 mph - N/A   Clear
5:55 AM 34.0 °F 27.2 °F 30.2 °F 86% 29.76 in 10.0 mi West 8.1 mph - N/A   Clear
6:15 AM 33.8 °F 25.8 °F 29.1 °F 83% 29.79 in 10.0 mi West 10.4 mph - N/A   Clear
6:35 AM 33.8 °F 27.0 °F 28.9 °F 82% 29.81 in 10.0 mi West 8.1 mph - N/A   Clear
6:55 AM 34.5 °F 27.9 °F 28.2 °F 78% 29.84 in 10.0 mi WSW 8.1 mph - N/A   Scattered Clouds
7:15 AM 35.2 °F 28.1 °F 28.4 °F 76% 29.85 in 10.0 mi West 9.2 mph - N/A   Mostly Cloudy
7:35 AM 34.9 °F 26.2 °F 26.4 °F 71% 29.85 in 10.0 mi West 12.7 mph - N/A   Overcast
7:55 AM 34.7 °F 26.4 °F 26.6 °F 72% 29.86 in 10.0 mi West 11.5 mph - N/A   Overcast
8:15 AM 34.7 °F 25.9 °F 26.2 °F 71% 29.87 in 10.0 mi West 12.7 mph - N/A   Overcast
8:35 AM 34.7 °F 28.1 °F 26.2 °F 71% 29.88 in 10.0 mi West 8.1 mph - N/A   Overcast
8:55 AM 35.2 °F 25.4 °F 25.9 °F 69% 29.91 in 10.0 mi West 16.1 mph - N/A   Overcast
9:15 AM 34.2 °F 25.7 °F 26.4 °F 73% 29.92 in 10.0 mi West 11.5 mph - N/A   Overcast
9:35 AM 34.9 °F 26.6 °F 25.9 °F 70% 29.90 in 10.0 mi West 11.5 mph - N/A   Overcast
9:55 AM 34.9 °F 27.1 °F 26.4 °F 71% 29.90 in 10.0 mi West 10.4 mph - N/A   Overcast
10:15 AM 35.1 °F 27.4 °F 27.0 °F 72% 29.91 in 10.0 mi West 10.4 mph - N/A   Overcast
10:35 AM 35.8 °F 26.5 °F 27.0 °F 70% 29.92 in 10.0 mi West 15.0 mph - N/A   Overcast
10:55 AM 35.6 °F 25.9 °F 27.0 °F 71% 29.93 in 10.0 mi West 16.1 mph - N/A   Overcast
11:15 AM 36.1 °F 26.5 °F 27.3 °F 70% 29.94 in 10.0 mi West 16.1 mph - N/A   Overcast
11:35 AM 36.5 °F 27.0 °F 27.7 °F 70% 29.96 in 10.0 mi West 16.1 mph 19.6 mph N/A   Overcast
11:55 AM 36.9 °F 28.2 °F 28.0 °F 70% 29.97 in 10.0 mi West 13.8 mph - N/A   Overcast
12:15 PM 37.6 °F 28.8 °F 28.4 °F 69% 29.96 in 10.0 mi West 15.0 mph - N/A   Overcast
12:35 PM 37.8 °F 28.0 °F 28.4 °F 69% 29.96 in 10.0 mi West 18.4 mph - N/A   Overcast
12:55 PM 38.8 °F 30.4 °F 29.1 °F 68% 29.96 in 10.0 mi West 15.0 mph - N/A   Overcast
1:15 PM 39.4 °F 31.4 °F 29.7 °F 68% 29.96 in 10.0 mi West 13.8 mph - N/A   Overcast
1:35 PM 39.6 °F 32.1 °F 29.5 °F 67% 29.96 in 10.0 mi WNW 12.7 mph - N/A   Overcast
1:55 PM 40.6 °F 32.7 °F 30.2 °F 66% 29.96 in 10.0 mi WNW 15.0 mph - N/A   Mostly Cloudy
2:15 PM 41.5 °F 33.8 °F 30.7 °F 65% 29.96 in 10.0 mi WNW 15.0 mph - N/A   Overcast
2:35 PM 41.2 °F 34.1 °F 30.2 °F 65% 29.95 in 10.0 mi West 12.7 mph - N/A   Mostly Cloudy
2:55 PM 41.9 °F 35.4 °F 30.2 °F 63% 29.95 in 10.0 mi WNW 11.5 mph - N/A   Scattered Clouds
3:15 PM 43.2 °F 37.9 °F 30.7 °F 62% 29.94 in 10.0 mi WNW 9.2 mph - N/A   Mostly Cloudy
3:35 PM 43.7 °F 38.1 °F 31.1 °F 61% 29.93 in 10.0 mi West 10.4 mph - N/A   Overcast
3:55 PM 45.1 °F 39.9 °F 31.5 °F 59% 29.93 in 10.0 mi NW 10.4 mph - N/A   Overcast
4:15 PM 45.7 °F 41.0 °F 30.9 °F 56% 29.93 in 10.0 mi NW 9.2 mph - N/A   Scattered Clouds
4:35 PM 45.1 °F 39.5 °F 31.5 °F 59% 29.93 in 10.0 mi NW 11.5 mph 17.3 mph N/A   Scattered Clouds
4:55 PM 45.3 °F 40.6 °F 29.8 °F 55% 29.93 in 10.0 mi NNW 9.2 mph 12.7 mph N/A   Scattered Clouds
5:15 PM 45.5 °F 40.8 °F 30.6 °F 56% 29.93 in 10.0 mi NNW 9.2 mph - N/A   Clear
5:35 PM 45.7 °F 42.0 °F 31.1 °F 57% 29.94 in 10.0 mi NNW 6.9 mph - N/A   Scattered Clouds
5:55 PM 45.9 °F 44.6 °F 31.1 °F 56% 29.94 in 10.0 mi NW 3.5 mph - N/A   Mostly Cloudy
6:15 PM 48.0 °F - 32.0 °F 54% 29.94 in 10.0 mi NNW 9.2 mph - N/A   Scattered Clouds
6:35 PM 48.2 °F - 31.6 °F 53% 29.94 in 10.0 mi NW 11.5 mph - N/A   Clear
6:55 PM 47.5 °F - 31.6 °F 54% 29.96 in 10.0 mi NW 6.9 mph - N/A   Scattered Clouds
7:15 PM 47.5 °F - 31.1 °F 53% 29.97 in 10.0 mi NNW 8.1 mph - N/A   Mostly Cloudy
7:35 PM 46.8 °F - 31.8 °F 56% 29.97 in 10.0 mi NNW 9.2 mph - N/A   Overcast
7:55 PM 45.7 °F 41.5 °F 32.0 °F 59% 29.98 in 10.0 mi North 8.1 mph - N/A   Overcast
8:15 PM 44.2 °F 40.3 °F 32.0 °F 62% 30.00 in 10.0 mi North 6.9 mph - N/A   Overcast
8:35 PM 43.9 °F 39.3 °F 32.2 °F 63% 30.01 in 10.0 mi North 8.1 mph - N/A   Overcast
8:55 PM 43.3 °F 39.9 °F 32.2 °F 65% 30.03 in 10.0 mi NNW 5.8 mph - N/A   Overcast
9:15 PM 43.0 °F 39.5 °F 32.2 °F 66% 30.04 in 10.0 mi North 5.8 mph - N/A   Overcast
9:35 PM 42.1 °F 37.1 °F 32.0 °F 67% 30.04 in 10.0 mi North 8.1 mph - N/A   Scattered Clouds
9:55 PM 41.2 °F 37.3 °F 32.0 °F 70% 30.05 in 10.0 mi North 5.8 mph - N/A   Clear
10:15 PM 40.6 °F 35.4 °F 31.8 °F 71% 30.07 in 10.0 mi North 8.1 mph - N/A   Clear
10:35 PM 39.6 °F 35.4 °F 31.8 °F 74% 30.08 in 10.0 mi North 5.8 mph - N/A   Clear
10:55 PM 39.2 °F 33.6 °F 31.6 °F 74% 30.08 in 10.0 mi North 8.1 mph - N/A   Clear
11:15 PM 39.2 °F 34.2 °F 31.3 °F 73% 30.09 in 10.0 mi North 6.9 mph - N/A   Clear
11:35 PM 38.8 °F 34.6 °F 31.5 °F 75% 30.09 in 10.0 mi North 5.8 mph - N/A   Scattered Clouds
11:55 PM 38.8 °F 35.4 °F 31.6 °F 75% 30.10 in 10.0 mi North 4.6 mph - N/A   Mostly Cloudy